AirNav   ProFlight Series 2 Aviation Headset
 
 404 users online  

1S2 Darrington Municipal Airport
Darrington, Washington, USA

GOING TO DARRINGTON?


FAA INFORMATION EFFECTIVE 18 JUNE 2020

Location

FAA Identifier: 1S2
Lat/Long: 48-15-31.0050N 121-36-36.7330W
48-15.516750N 121-36.612217W
48.2586125,-121.6102036
(estimated)
Elevation: 553 ft. / 169 m (estimated)
Variation: 21E (1985)
Time zone: UTC -7 (UTC -8 during Standard Time)
Zip code: 98241

Airport Operations

Airport use: Open to the public
Activation date: 01/1948
Control tower: no
ARTCC: SEATTLE CENTER
FSS: SEATTLE FLIGHT SERVICE STATION
NOTAMs facility: SEA (NOTAM-D service available)
Attendance: UNATNDD
Wind indicator: lighted
Segmented circle: no
Lights: ACTVT MIRL RY 10/28 BY CONTACTING AIRPORT MANAGER.
Beacon: white-green (lighted land airport)
Operates sunset to sunrise.

Airport Communications

CTAF: 122.9

Nearby radio navigation aids

VOR radial/distance  VOR name  Freq  Var
PAEr033/33.6PAINE VOR/DME110.6020E

 
NDB name  Hdg/Dist  Freq  Var  ID
SKAGIT/BAY VIEW095/34.624016EBVS -... ...- ...

Airport Services

Parking: tiedowns
Airframe service: NONE
Powerplant service: NONE
Bottled oxygen: NONE
Bulk oxygen: NONE

Runway Information

Runway 10/28

Dimensions: 2491 x 40 ft. / 759 x 12 m
Surface: asphalt, in good condition
Runway edge lights: medium intensity
MIRL RY 10/28 OTS INDEFLY.
RUNWAY 10  RUNWAY 28
Latitude: 48-15.588983N48-15.444517N
Longitude: 121-36.899333W121-36.325117W
Elevation: 544.0 ft.553.0 ft.
Traffic pattern: leftleft
Runway heading: 090 magnetic, 111 true270 magnetic, 291 true
Markings: basic, in good conditionbasic, in good condition
Obstructions: 4 ft. fence, 200 ft. from runway, 29 ft. right of centerline
FENCE AT 40', 104' RIGHT.
15 ft. road, 305 ft. from runway, 126 ft. left of centerline, 7:1 slope to clear

Airport Ownership and Management from official FAA records

Ownership: Publicly-owned
Owner: TOWN OF DARRINGTON
P.O. BOX 397
DARRINGTON, WA 98241
Phone 360-436-1131
Manager: JIM HALE
P.O. BOX 312
DARRINGTON, WA 98241
Phone 360-436-1454
MANAGER'S CELL PHONE NUMBER IS 360-631-1928.

Airport Operational Statistics

Aircraft based on the field: 11
Single engine airplanes: 5
Helicopters: 4
Gliders airplanes: 2
    
Aircraft operations: avg 44/week *
67% local general aviation
33% transient general aviation
* for 12-month period ending 31 December 2016

Additional Remarks

CLSD WHEN SNOW ON RY.
TURB ON HOT DAYS LNDG W IN TRSN EAST APPROACH.
TWYS MARKED WITH BLUE REFLECTORS.
FOR CD CTC SEATTLE ARTCC AT 253-351-3694.

Instrument Procedures

There are no published instrument procedures at 1S2.

Some nearby airports with instrument procedures:

KAWO - Arlington Municipal Airport (23 nm W)
S43 - Harvey Field Airport (29 nm SW)
KPAE - Snohomish County Airport (Paine Field) (34 nm SW)
KBVS - Skagit Regional Airport (35 nm W)
KNUW - Whidbey Island Naval Air Station (Ault Field) (42 nm W)
 
Loc | Ops | Rwys | IFR | FBO | Links
Com | Nav | Svcs | Stats | Notes
Area around 1S2 (Darrington Municipal Airport)
 
Road maps at: MapQuest Bing Google
 
Aerial photo
WARNING: Photo may not be current or correct
Aerial photo of 1S2 (Darrington Municipal Airport)
Do you have a better or more recent aerial photo of Darrington Municipal Airport that you would like to share? If so, please send us your photo.

 
Sectional chart

 
Airport distance calculator
Flying to Darrington Municipal Airport? Find the distance to fly.

From to 1S2

Sunrise and sunset
Times for 06-Jul-2020
 Local
(UTC-7)
 Zulu
(UTC)
Morning civil twilight04:3411:34
Sunrise05:1512:15
Sunset21:0704:07
Evening civil twilight21:4804:48

Current date and time
Zulu (UTC)  06-Jul-2020 10:55:07
Local (UTC-7)  06-Jul-2020 03:55:07
 
METAR
KAWO 
23nm W 
060956Z AUTO 00000KT 10SM CLR 10/09 A3008 RMK AO2 SLP192 T01000089
KPAE 
34nm SW 
060953Z AUTO 00000KT 10SM OVC055 12/08 A3009 RMK AO2 SLP186 T01220083
KBVS 
34nm W 
061035Z AUTO 16004KT 10SM CLR 09/09 A3007 RMK A01
KNUW 
42nm W 
060956Z 00000KT 10SM FEW050 BKN250 12/08 A3011 RMK SLP194 T01170083
TAF
KPAE 
34nm SW 
060524Z 0606/0706 34004KT P6SM SCT060 FM061200 VRB03KT P6SM BKN050 FM062100 29007KT P6SM SCT050 BKN250 FM070300 29007KT P6SM BKN050 BKN200
KNUW 
42nm W 
0607/0707 23006KT 9999 FEW030 SCT050 QNH3007INS FM061100 23006KT 9999 SCT030 BKN050 BKN250 QNH3006INS FM061500 24008KT 9999 BKN030 BKN050 BKN250 QNH3004INS TEMPO 0615/0621 BKN025 BKN050 OVC250 FM070000 25009KT 9999 SCT030 BKN050 BKN250 QNH3001INS T10/0613Z T17/0622Z FS30020
NOTAMs
Click for the latest NOTAMs
NOTAMs are issued by the DoD/FAA and will open in a separate window not controlled by AirNav.

 

 
 

Would you like to see your business listed on this page?

 If your business provides an interesting product or service to pilots, flight crews, aircraft, or users of the Darrington Municipal Airport, you should consider listing it here.  To start the listing process, click on the button below
 
Add a business
 

Other Pages about Darrington Municipal Airport

Update a link
 
Copyright © AirNav, LLC. All rights reserved. Privacy Policy  Contact